"Pseudo-MPEC" for P11Y2P3

Created 2024 Sep 8 23:22:09 UT using Find_Orb

Click here for an explanation of pseudo-MPECs

 
 Astrometry: 
     P11Y2P3* C2024 09 05.29081020 50 32.383+03 19 22.48   ~958q 21.71wXNEOCPF51
     P11Y2P3  C2024 09 05.31067220 50 33.146+03 19 23.83   ~958q 21.74wXNEOCPF51
     P11Y2P3  C2024 09 05.31887220 50 33.470+03 19 24.15   ~958q 21.56wXNEOCPF51
     P11Y2P3  C2024 09 05.37212820 50 35.496+03 19 26.92   ~95Iq 21.54GVNEOCPF51
     P11Y2P3  C2024 09 05.37277220 50 35.525+03 19 27.15   ~95Iq 21.64GVNEOCPF51
     P11Y2P3 1C2024 09 08.26272920 53 47.765+03 20 44.90   ~98Jq 21.42GVNEOCPT12
     P11Y2P3 1C2024 09 08.26600920 53 47.951+03 20 44.90   ~98Jq 21.36GVNEOCPT12

Station data:
(F51) Pan-STARRS 1, Haleakala  (N20.707234 W156.255910)  US/Hawaii.
   Observers J. Bulger, T. Lowe, A. Schultz, M. Willman. Measurers K.
   Chambers, S. Chastel, T. de Boer, L. Denneau, J. Fairlamb, H. Flewelling,
   M. Huber, C.-C. Lin, E. Magnier, Y. Ramanjooloo, R. Wainscoat, R. Weryk.
   1.8-m Ritchey-Chrétien + CCD.
(T12) Mauna Kea-UH/Tholen NEO Follow-Up (2.24-m)  (N19.822991 W155.469434)
   US/Hawaii.  Observer R. Weryk. 2.24-m f/10.1 University of Hawaii
   reflector.

Orbital elements:  P11Y2P3
   Perihelion 2024 Oct 8.90774 +/- 3.6 TT = 21:47:08 (JD 2460592.40774)
Epoch 2024 Sep  8.0 TT = JDT 2460561.5   Earth MOID: 0.1120      AutoNEOCP
M 348.34640135 +/- 2.4              (J2000 ecliptic)
n   0.37704466 +/- 0.124            Peri.  161.22709 +/- 18
a   1.89761242 +/- 0.417            Node   210.46550 +/- 13
e   0.4151977 +/- 0.139             Incl.    3.93194 +/- 0.9
P   2.614/954.776d         H 23.83  G  0.15   U 11.3
q 1.10972797 +/- 0.0201    Q 2.68549687 +/- 0.855
From 7 observations 2024 Sept. 5-8; mean residual 0".06
Residuals in arcseconds: 
240905 F51  .00   .07-    240905 F51  .04-  .10-    240908 T12  .00   .02-    
240905 F51  .07-  .11+    240905 F51  .03+  .10+    
240905 F51  .08+  .04-    240908 T12  .00   .02+    

Ephemerides (geocentric):
Date (UTC) HH   RA             Dec           delta  r     elong  mag " sig PA
---- --------  ------------   ------------  ------ ------ -----  --- --------
2024 09 08 23  20 54 39.690   +03 20 56.83  .17247 1.1529 145.1 21.6 19.7  90
2024 09 09 00  20 54 42.983   +03 20 56.42  .17238 1.1528 145.1 21.6 21.1  90
2024 09 09 01  20 54 46.287   +03 20 55.99  .17229 1.1527 145.0 21.6 22.5  90
2024 09 09 02  20 54 49.602   +03 20 55.53  .17220 1.1526 145.0 21.6 24.0  90
2024 09 09 03  20 54 52.928   +03 20 55.03  .17212 1.1525 145.0 21.6 25.5  90
2024 09 09 04  20 54 56.266   +03 20 54.51  .17203 1.1523 145.0 21.6 27.1  90
2024 09 09 05  20 54 59.614   +03 20 53.97  .17194 1.1522 145.0 21.6 28.7  90
2024 09 09 06  20 55 02.974   +03 20 53.39  .17185 1.1521 145.0 21.6 30.3  89
2024 09 09 07  20 55 06.344   +03 20 52.78  .17177 1.1520 144.9 21.6 32.0  89
2024 09 09 08  20 55 09.726   +03 20 52.15  .17168 1.1519 144.9 21.6 33.6  89
2024 09 09 09  20 55 13.119   +03 20 51.49  .17159 1.1518 144.9 21.6 35.4  89
2024 09 09 10  20 55 16.523   +03 20 50.80  .17150 1.1517 144.9 21.6 37.1  89
2024 09 09 11  20 55 19.938   +03 20 50.08  .17142 1.1515 144.9 21.6 38.9  89
2024 09 09 12  20 55 23.365   +03 20 49.34  .17133 1.1514 144.8 21.6 40.7  89
2024 09 09 13  20 55 26.802   +03 20 48.56  .17124 1.1513 144.8 21.6 42.6  89
2024 09 09 14  20 55 30.251   +03 20 47.76  .17116 1.1512 144.8 21.6 44.5  89
2024 09 09 15  20 55 33.711   +03 20 46.93  .17107 1.1511 144.8 21.6 46.4  89
2024 09 09 16  20 55 37.183   +03 20 46.08  .17098 1.1510 144.8 21.6 48.4  89
2024 09 09 17  20 55 40.665   +03 20 45.19  .17090 1.1509 144.7 21.6 50.4  89
2024 09 09 18  20 55 44.159   +03 20 44.28  .17081 1.1507 144.7 21.6 52.5  89
2024 09 09 19  20 55 47.664   +03 20 43.34  .17072 1.1506 144.7 21.6 54.5  89
2024 09 09 20  20 55 51.181   +03 20 42.37  .17064 1.1505 144.7 21.6 56.6  89
2024 09 09 21  20 55 54.708   +03 20 41.37  .17055 1.1504 144.7 21.6 58.8  89
2024 09 09 22  20 55 58.247   +03 20 40.35  .17047 1.1503 144.7 21.6 61.0  89
2024 09 09 23  20 56 01.798   +03 20 39.30  .17038 1.1502 144.6 21.6 63.2  89
2024 09 10 00  20 56 05.360   +03 20 38.22  .17029 1.1501 144.6 21.6 65.5  89
2024 09 10 01  20 56 08.933   +03 20 37.11  .17021 1.1500 144.6 21.6 67.8  89
2024 09 10 02  20 56 12.517   +03 20 35.98  .17012 1.1498 144.6 21.6 70.1  89
2024 09 10 03  20 56 16.113   +03 20 34.82  .17004 1.1497 144.6 21.6 72.5  89
2024 09 10 04  20 56 19.721   +03 20 33.63  .16995 1.1496 144.5 21.6 74.9  89
2024 09 10 05  20 56 23.340   +03 20 32.41  .16987 1.1495 144.5 21.6 77.4  89
2024 09 10 06  20 56 26.970   +03 20 31.17  .16978 1.1494 144.5 21.6 79.9  89
2024 09 10 07  20 56 30.611   +03 20 29.89  .16969 1.1493 144.5 21.6 82.4  89
2024 09 10 08  20 56 34.265   +03 20 28.60  .16961 1.1492 144.5 21.6 85.0  89
2024 09 10 09  20 56 37.929   +03 20 27.27  .16952 1.1491 144.5 21.6 87.6  89
2024 09 10 10  20 56 41.605   +03 20 25.92  .16944 1.1490 144.4 21.6 90.3  89
2024 09 10 11  20 56 45.293   +03 20 24.54  .16935 1.1488 144.4 21.6 93.0  89
2024 09 10 12  20 56 48.992   +03 20 23.13  .16927 1.1487 144.4 21.6 95.7  89
2024 09 10 13  20 56 52.703   +03 20 21.70  .16919 1.1486 144.4 21.6 98.5  89
2024 09 10 14  20 56 56.425   +03 20 20.23  .16910 1.1485 144.4 21.6  101  89
2024 09 10 15  20 57 00.159   +03 20 18.75  .16902 1.1484 144.3 21.6  104  89
2024 09 10 16  20 57 03.904   +03 20 17.23  .16893 1.1483 144.3 21.6  107  89
2024 09 10 17  20 57 07.661   +03 20 15.69  .16885 1.1482 144.3 21.6  110  89
2024 09 10 18  20 57 11.429   +03 20 14.12  .16876 1.1481 144.3 21.6  113  89
2024 09 10 19  20 57 15.209   +03 20 12.52  .16868 1.1480 144.3 21.6  116  89
2024 09 10 20  20 57 19.001   +03 20 10.90  .16859 1.1478 144.3 21.6  119  89
2024 09 10 21  20 57 22.805   +03 20 09.25  .16851 1.1477 144.2 21.6  122  89
2024 09 10 22  20 57 26.620   +03 20 07.57  .16843 1.1476 144.2 21.6  125  89